Location: Acequia del Cap
(41.7000°N, 0.6167°E)
Time: 01:23:54
(UTC+00:00)

Cosmos 2227 Rocket - Pass Details

Date: 07 August 2020
Orbit: 840 x 844 km, 71.0° (Epoch: 22 September)

Event Time Altitude Azimuth Distance (km) Brightness Sun altitude
Exits shadow 03:15:02 15° 275° (W) 2,123 3.9 -17.1°
Maximum altitude 03:17:42 20° 309° (NW) 1,844 3.9 -16.7°
Drops below altitude 10° 03:21:50 10° 357° (N) 2,471 5.1 -16.1°
Sets 03:24:58 0° 14° (NNE) 3,409 6.3 -15.7°
